Home > Products > Valid Products > RWR

000
ASUS44 KLIX 301111
RWRLIX
NEW ORLEANS REGIONAL WEATHER ROUNDUP
NATIONAL WEATHER SERVICE NEW ORLEANS LA
600 AM CDT MON MAY 30 2016

NOTE: "FAIR" INDICATES FEW OR NO CLOUDS BELOW 12,000 FEET WITH NO
      SIGNIFICANT WEATHER AND/OR OBSTRUCTIONS TO VISIBILITY.
      SKY/WX - SKY CONDITION AND SIGNIFICANT WEATHER.
      TMP - AIR TEMPERATURE.     DP    - DEWPOINT TEMPERATURE.
      RH  - RELATIVE HUMIDITY.   PRES  - PRESSURE.
      HI  - HEAT INDEX.          WCI   - WIND CHILL INDEX.

*  THESE STATIONS ARE NOT NWS OR FAA STATIONS AND ARE NOT UNDER
   NWS QUALITY CONTROL.

LAZ038-040-048-061>063-065>067-069-301200-
SOUTHEAST LOUISIANA

CITY           SKY/WX    TMP DP  RH WIND       PRES   REMARKS
N.O. AUDUBON   NOT AVBL
N.O. INTL ARPT PTCLDY    73  71  93 CALM      30.00R
N.O. LAKEFRONT CLEAR     79  70  74 W8        30.00S
N.O. DOWNTOWN*   N/A     77  71  82 CALM      30.01R
RESERVE*         N/A     73  71  93 CALM      30.00S
SLIDELL        CLEAR     69  68  96 CALM      30.00R
BATON ROUGE    PTCLDY    71  68  90 CALM      30.01R
BOOTHVILLE     CLEAR     74  70  87 CALM      30.00S
BELLE CHASSE   CLEAR     69  68  96 CALM      30.00R
BOGALUSA*        N/A     69  65  88 CALM      30.02S
GALLIANO*      SUNNY     64  63  96 CALM      30.00S FOG
NEW ROADS*       N/A     71  70  98 CALM      30.02R
GONZALES*      FOG       70  70 100 CALM      30.00R VSB 1
HAMMOND*       PTCLDY    68  64  88 CALM      30.01R
HOUMA*         CLEAR     69  69 100 CALM      30.00F FOG
PORT FOURCHON* SUNNY     77  72  83 SW3       30.01R

$$

MSZ070-080>082-301200-
SOUTHERN MISSISSIPPI

CITY           SKY/WX    TMP DP  RH WIND       PRES   REMARKS
MCCOMB         CLOUDY    68  65  90 CALM      30.03R
GULFPORT       CLEAR     70  68  93 NW5       29.99S
BILOXI         CLEAR     74  74  99 VRB2      29.99F
PASCAGOULA     PTCLDY    67  66  97 SE3       30.00S

$$

COASTAL OBSERVATIONS
LAKE AND NEARSHORE STATIONS

STATION/POSITION TIME  TEMP    WIND        PRES    WAVE
                       AIR SEA DIR/SP/G            HT/PER
                 (UTC) (F)     (DEG/KT/KT) (MB)    (FT/S)
PASCAGOULA       1000   76     300/  3/  4 1015.2
WAVELAND YACHT   1000   74 80  290/  2/  3 1015.7
GRAND ISLE       1000   78 83  190/  1/  2 1015.3
SOUTHWEST PASS   1000          200/  3/  4   N/A
NEW CANAL        1000   77 81  250/  2/  3 1014.8
SHELL BEACH      1000   77 82  280/  7/  8 1015.8

OFFSHORE STATIONS

STATION/POSITION TIME  TEMP    WIND        PRES    WAVE
                       AIR SEA DIR/SP/G            HT/PER
                 (UTC) (F)     (DEG/KT/KT) (MB)    (FT/S)
64 S DAUPHIN ISL 1000   79 80  270/  6/  6 1015.8

$$







000
ASUS44 KLIX 301111
RWRLA
LOUISIANA WEATHER ROUNDUP
NATIONAL WEATHER SERVICE NEW ORLEANS LA
600 AM CDT MON MAY 30 2016

NOTE: "FAIR" INDICATES FEW OR NO CLOUDS BELOW 12,000 FEET WITH NO
      SIGNIFICANT WEATHER AND/OR OBSTRUCTIONS TO VISIBILITY.
      SKY/WX - SKY CONDITION AND SIGNIFICANT WEATHER.
      TMP - AIR TEMPERATURE.    DP   - DEWPOINT TEMPERATURE.
      RH  - RELATIVE HUMIDITY.  PRES - PRESSURE.
      HX  - HEAT INDEX.         WCI  - WIND CHILL INDEX.

*  THESE STATIONS ARE NOT NWS OR FAA STATIONS AND ARE NOT UNDER
   NWS QUALITY CONTROL.

LAZ040-048-061>063-065-066-069-301200-
SOUTHEAST LOUISIANA

CITY           SKY/WX    TMP DP  RH WIND       PRES   REMARKS
N.O. AUDUBON   NOT AVBL
N.O. INTL ARPT PTCLDY    73  71  93 CALM      30.00R
N.O. LAKEFRONT CLEAR     79  70  74 W8        30.00S
N.O. DOWNTOWN* FAIR      77  71  82 CALM      30.01R
RESERVE*       FAIR      73  71  93 CALM      30.00S
SLIDELL        CLEAR     69  68  96 CALM      30.00R
BATON ROUGE    PTCLDY    71  68  90 CALM      30.01R
BOOTHVILLE     CLEAR     74  70  87 CALM      30.00S
BELLE CHASSE   CLEAR     69  68  96 CALM      30.00R
BOGALUSA*      FAIR      69  65  88 CALM      30.02S
GALLIANO*      SUNNY     64  63  96 CALM      30.00S FOG
NEW ROADS*     FAIR      71  70  98 CALM      30.02R
GONZALES*      FOG       70  70 100 CALM      30.00R VSB 1
HAMMOND*       PTCLDY    68  64  88 CALM      30.01R
HOUMA*         CLEAR     69  69 100 CALM      30.00F FOG
PORT FOURCHON* SUNNY     77  72  83 SW3       30.01R

$$

LAZ041-044-053-054-301200-
SOUTHWEST LOUISIANA

CITY           SKY/WX    TMP DP  RH WIND       PRES   REMARKS
LAKE CHARLES   PTCLDY    71  71 100 CALM      30.01S
LAFAYETTE      MOCLDY    75  73  93 NW5       30.01R
PATTERSON      MOCLDY    72  71  97 CALM      30.03
SALT POINT       N/A     75  74  96 CALM      29.99R
NEW IBERIA     FOG       72  71  97 CALM      30.01S VSB 1/4
CHENAULT AIRPK MOCLDY   N/A N/A N/A CALM        N/A  FOG

$$

LAZ027-028-301200-
CENTRAL LOUISIANA

CITY           SKY/WX    TMP DP  RH WIND       PRES   REMARKS
FORT POLK      PTCLDY    70  68  95 NW5       30.02R
ALEXANDRIA INT CLEAR     70  70 100 CALM      30.01R FOG
ALEXANDRIA     CLEAR     69  66  90 CALM      30.02R FOG

$$

LAZ001-002-301200-
NORTHWEST LOUISIANA

CITY           SKY/WX    TMP DP  RH WIND       PRES   REMARKS
SHREVEPORT     CLOUDY    69  66  90 CALM      30.02S
BARKSDALE AFB  CLOUDY    67  67 100 E3        30.03R
DTN SHREVEPORT CLOUDY    70  66  87 CALM      30.03R

$$

LAZ014-016-301200-
NORTHEAST LOUISIANA

CITY           SKY/WX    TMP DP  RH WIND       PRES   REMARKS
MONROE         PTCLDY    68  66  93 NE8       30.05R
TALLULAH       CLOUDY    69  66  90 VRB3      30.04R

$$







000
ASUS44 KLIX 300311
RWRLIX
NEW ORLEANS REGIONAL WEATHER ROUNDUP
NATIONAL WEATHER SERVICE NEW ORLEANS LA
1000 PM CDT SUN MAY 29 2016

NOTE: "FAIR" INDICATES FEW OR NO CLOUDS BELOW 12,000 FEET WITH NO
      SIGNIFICANT WEATHER AND/OR OBSTRUCTIONS TO VISIBILITY.
      SKY/WX - SKY CONDITION AND SIGNIFICANT WEATHER.
      TMP - AIR TEMPERATURE.     DP    - DEWPOINT TEMPERATURE.
      RH  - RELATIVE HUMIDITY.   PRES  - PRESSURE.
      HI  - HEAT INDEX.          WCI   - WIND CHILL INDEX.

*  THESE STATIONS ARE NOT NWS OR FAA STATIONS AND ARE NOT UNDER
   NWS QUALITY CONTROL.

LAZ038-040-048-061>063-065>067-069-300400-
SOUTHEAST LOUISIANA

CITY           SKY/WX    TMP DP  RH WIND       PRES   REMARKS
N.O. AUDUBON     N/A     78  72  81 MISG        N/A
N.O. INTL ARPT MOCLDY    79  71  76 S7        30.04R
N.O. LAKEFRONT MOCLDY    81  70  69 S7        30.05R
N.O. DOWNTOWN*   N/A     83  72  69 S6        30.05R
RESERVE*         N/A     80  72  76 S6        30.05R
SLIDELL        CLOUDY    75  71  87 CALM      30.03R
BATON ROUGE    CLOUDY    77  70  79 CALM      30.04R
BOOTHVILLE     MOCLDY    77  71  82 S5        30.05R
BELLE CHASSE   PTCLDY    75  72  90 SW5       30.05R
BOGALUSA*        N/A     76  71  84 CALM      30.05R
GALLIANO*        N/A     71  68  91 CALM      30.05R FOG
NEW ROADS*       N/A     76  73  90 CALM      30.05R
GONZALES*        N/A     74  70  86 CALM      30.04R
HAMMOND*       CLOUDY    77  68  73 CALM      30.04R
HOUMA*         PTCLDY    75  72  90 CALM      30.05R
PORT FOURCHON* CLEAR     81  70  69 S6        30.05R

$$

MSZ070-080>082-300400-
SOUTHERN MISSISSIPPI

CITY           SKY/WX    TMP DP  RH WIND       PRES   REMARKS
MCCOMB         CLOUDY    75  67  76 CALM      30.06R
GULFPORT       CLEAR     77  70  79 CALM      30.03R
BILOXI         NOT AVBL
PASCAGOULA     CLEAR     71  69  93 CALM      30.04R

$$

COASTAL OBSERVATIONS
LAKE AND NEARSHORE STATIONS

STATION/POSITION TIME  TEMP    WIND        PRES    WAVE
                       AIR SEA DIR/SP/G            HT/PER
                 (UTC) (F)     (DEG/KT/KT) (MB)    (FT/S)
PASCAGOULA       0200   81                   N/A
WAVELAND YACHT   0200   81 81                N/A
GRAND ISLE       0200   80 83                N/A
SOUTHWEST PASS   0200          170/  6/  7   N/A
NEW CANAL        0200   82 82                N/A
SHELL BEACH      0200   80 84                N/A

OFFSHORE STATIONS

STATION/POSITION TIME  TEMP    WIND        PRES    WAVE
                       AIR SEA DIR/SP/G            HT/PER
                 (UTC) (F)     (DEG/KT/KT) (MB)    (FT/S)
64 S DAUPHIN ISL 0200   79 80  220/  4/  6 1017.0

$$







000
ASUS44 KLIX 300311
RWRLA
LOUISIANA WEATHER ROUNDUP
NATIONAL WEATHER SERVICE NEW ORLEANS LA
1000 PM CDT SUN MAY 29 2016

NOTE: "FAIR" INDICATES FEW OR NO CLOUDS BELOW 12,000 FEET WITH NO
      SIGNIFICANT WEATHER AND/OR OBSTRUCTIONS TO VISIBILITY.
      SKY/WX - SKY CONDITION AND SIGNIFICANT WEATHER.
      TMP - AIR TEMPERATURE.    DP   - DEWPOINT TEMPERATURE.
      RH  - RELATIVE HUMIDITY.  PRES - PRESSURE.
      HX  - HEAT INDEX.         WCI  - WIND CHILL INDEX.

*  THESE STATIONS ARE NOT NWS OR FAA STATIONS AND ARE NOT UNDER
   NWS QUALITY CONTROL.

LAZ040-048-061>063-065-066-069-300400-
SOUTHEAST LOUISIANA

CITY           SKY/WX    TMP DP  RH WIND       PRES   REMARKS
N.O. AUDUBON     N/A     78  72  81 MISG        N/A
N.O. INTL ARPT MOCLDY    79  71  76 S7        30.04R
N.O. LAKEFRONT MOCLDY    81  70  69 S7        30.05R
N.O. DOWNTOWN* FAIR      83  72  69 S6        30.05R
RESERVE*       FAIR      80  72  76 S6        30.05R
SLIDELL        CLOUDY    75  71  87 CALM      30.03R
BATON ROUGE    CLOUDY    77  70  79 CALM      30.04R
BOOTHVILLE     MOCLDY    77  71  82 S5        30.05R
BELLE CHASSE   PTCLDY    75  72  90 SW5       30.05R
BOGALUSA*      FAIR      76  71  84 CALM      30.05R
GALLIANO*        N/A     71  68  91 CALM      30.05R FOG
NEW ROADS*     FAIR      76  73  90 CALM      30.05R
GONZALES*      FAIR      74  70  86 CALM      30.04R
HAMMOND*       CLOUDY    77  68  73 CALM      30.04R
HOUMA*         PTCLDY    75  72  90 CALM      30.05R
PORT FOURCHON* CLEAR     81  70  69 S6        30.05R

$$

LAZ041-044-053-054-300400-
SOUTHWEST LOUISIANA

CITY           SKY/WX    TMP DP  RH WIND       PRES   REMARKS
LAKE CHARLES   CLEAR     78  74  87 SW5       30.06R VSB 3/4
LAFAYETTE      CLEAR     78  74  87 CALM      30.04R
PATTERSON      PTCLDY    75  73  93 CALM      30.06
SALT POINT       N/A     78  76  93 CALM      30.04R
NEW IBERIA     CLEAR     76  71  85 SE6       30.06R
CHENAULT AIRPK CLEAR    N/A N/A N/A SE8         N/A

$$

LAZ027-028-300400-
CENTRAL LOUISIANA

CITY           SKY/WX    TMP DP  RH WIND       PRES   REMARKS
FORT POLK      NOT AVBL
ALEXANDRIA INT PTCLDY    74  72  93 CALM      30.05R
ALEXANDRIA     CLEAR     74  72  93 CALM      30.06R

$$

LAZ001-002-300400-
NORTHWEST LOUISIANA

CITY           SKY/WX    TMP DP  RH WIND       PRES   REMARKS
SHREVEPORT     CLOUDY    81  66  60 N13       30.08R
BARKSDALE AFB  NOT AVBL
DTN SHREVEPORT MOCLDY    77  64  64 N12       30.08R

$$

LAZ014-016-300400-
NORTHEAST LOUISIANA

CITY           SKY/WX    TMP DP  RH WIND       PRES   REMARKS
MONROE         CLOUDY    77  66  68 NE9       30.08R
TALLULAH       PTCLDY    76  62  62 NE10      30.06R

$$







000
ASUS44 KLIX 291811
RWRLIX
NEW ORLEANS REGIONAL WEATHER ROUNDUP
NATIONAL WEATHER SERVICE NEW ORLEANS LA
100 PM CDT SUN MAY 29 2016

NOTE: "FAIR" INDICATES FEW OR NO CLOUDS BELOW 12,000 FEET WITH NO
      SIGNIFICANT WEATHER AND/OR OBSTRUCTIONS TO VISIBILITY.
      SKY/WX - SKY CONDITION AND SIGNIFICANT WEATHER.
      TMP - AIR TEMPERATURE.     DP    - DEWPOINT TEMPERATURE.
      RH  - RELATIVE HUMIDITY.   PRES  - PRESSURE.
      HI  - HEAT INDEX.          WCI   - WIND CHILL INDEX.

*  THESE STATIONS ARE NOT NWS OR FAA STATIONS AND ARE NOT UNDER
   NWS QUALITY CONTROL.

LAZ038-040-048-061>063-065>067-069-291900-
SOUTHEAST LOUISIANA

CITY           SKY/WX    TMP DP  RH WIND       PRES   REMARKS
N.O. AUDUBON     N/A     87  73  62 MISG        N/A
6HR MIN TEMP:  75; 6HR MAX TEMP:  90;

N.O. INTL ARPT PTSUNNY   87  69  54 N6        30.12F
6HR MIN TEMP:  74; 6HR MAX TEMP:  87;

N.O. LAKEFRONT MOSUNNY   85  70  60 N7        30.13S
6HR MIN TEMP:  77; 6HR MAX TEMP:  85;

N.O. DOWNTOWN*   N/A     84  71  65 N8        30.12F
6HR MIN TEMP:  75; 6HR MAX TEMP:  85;

RESERVE*         N/A     87  67  50 N7        30.12S
6HR MIN TEMP:  72; 6HR MAX TEMP:  88;

SLIDELL        SUNNY     87  62  43 VRB5      30.11F
6HR MIN TEMP:  66; 6HR MAX TEMP:  88;

BATON ROUGE    PTSUNNY   87  67  51 CALM      30.13S
6HR MIN TEMP:  70; 6HR MAX TEMP:  87;

BOOTHVILLE     SUNNY     84  71  65 NE5       30.12F
6HR MIN TEMP:  75; 6HR MAX TEMP:  84;

BELLE CHASSE   PTSUNNY   83  72  69 E10       30.11F
6HR MIN TEMP:  77; 6HR MAX TEMP:  85;

BOGALUSA*        N/A     89  63  41 NE6       30.13F
6HR MIN TEMP:  66; 6HR MAX TEMP:  89;

GALLIANO*      CLOUDY    85  72  63 SE7       30.11F
6HR MIN TEMP:  65; 6HR MAX TEMP:  86;

NEW ROADS*       N/A     83  71  65 NW6       30.13F
6HR MIN TEMP:  68; 6HR MAX TEMP:  83;

GONZALES*      MOCLDY    85  67  55 CALM      30.11S
6HR MIN TEMP:  69; 6HR MAX TEMP:  86;

HAMMOND*       MOSUNNY   88  61  40 N3        30.11F
HOUMA*         PTSUNNY   84  70  61 N6        30.11F
PORT FOURCHON* CLEAR     81  72  74 SE12      30.11F

$$

MSZ070-080>082-291900-
SOUTHERN MISSISSIPPI

CITY           SKY/WX    TMP DP  RH WIND       PRES   REMARKS
MCCOMB         MOSUNNY   86  62  44 MISG      30.13F
6HR MIN TEMP:  66; 6HR MAX TEMP:  87;

GULFPORT       PTSUNNY   85  67  54 S6        30.10F
6HR MIN TEMP:  68; 6HR MAX TEMP:  87;

BILOXI         NOT AVBL
PASCAGOULA     MOSUNNY   87  68  52 VRB7      30.10F
6HR MIN TEMP:  67; 6HR MAX TEMP:  88;

STENNIS ARPT*  PTSUNNY   86  59  39 VRB5      30.11F

$$

COASTAL OBSERVATIONS
LAKE AND NEARSHORE STATIONS

STATION/POSITION TIME  TEMP    WIND        PRES    WAVE
                       AIR SEA DIR/SP/G            HT/PER
                 (UTC) (F)     (DEG/KT/KT) (MB)    (FT/S)
PASCAGOULA       1700   84     190/  5/ 10 1019.4
WAVELAND YACHT   1700   79 79  150/  7/  8 1020.0
GRAND ISLE       1700   81 82  120/  5/  9 1020.2
SOUTHWEST PASS   1700          130/  3/  5   N/A
NEW CANAL        1700   79 81   10/  7/  8 1019.5
SHELL BEACH      1700   79 81   10/  8/ 10 1020.2

OFFSHORE STATIONS

STATION/POSITION TIME  TEMP    WIND        PRES    WAVE
                       AIR SEA DIR/SP/G            HT/PER
                 (UTC) (F)     (DEG/KT/KT) (MB)    (FT/S)
64 S DAUPHIN ISL 1700   78 80   50/  4/  6 1020.0

$$







000
ASUS44 KLIX 291811
RWRLA
LOUISIANA WEATHER ROUNDUP
NATIONAL WEATHER SERVICE NEW ORLEANS LA
100 PM CDT SUN MAY 29 2016

NOTE: "FAIR" INDICATES FEW OR NO CLOUDS BELOW 12,000 FEET WITH NO
      SIGNIFICANT WEATHER AND/OR OBSTRUCTIONS TO VISIBILITY.
      SKY/WX - SKY CONDITION AND SIGNIFICANT WEATHER.
      TMP - AIR TEMPERATURE.    DP   - DEWPOINT TEMPERATURE.
      RH  - RELATIVE HUMIDITY.  PRES - PRESSURE.
      HX  - HEAT INDEX.         WCI  - WIND CHILL INDEX.

*  THESE STATIONS ARE NOT NWS OR FAA STATIONS AND ARE NOT UNDER
   NWS QUALITY CONTROL.

LAZ040-048-061>063-065-066-069-291900-
SOUTHEAST LOUISIANA

CITY           SKY/WX    TMP DP  RH WIND       PRES   REMARKS
N.O. AUDUBON     N/A     87  73  62 MISG        N/A
6HR MIN TEMP:  75; 6HR MAX TEMP:  90;

N.O. INTL ARPT PTSUNNY   87  69  54 N6        30.12F
6HR MIN TEMP:  74; 6HR MAX TEMP:  87;

N.O. LAKEFRONT MOSUNNY   85  70  60 N7        30.13S
6HR MIN TEMP:  77; 6HR MAX TEMP:  85;

N.O. DOWNTOWN* FAIR      84  71  65 N8        30.12F
6HR MIN TEMP:  75; 6HR MAX TEMP:  85;

RESERVE*       FAIR      87  67  50 N7        30.12S
6HR MIN TEMP:  72; 6HR MAX TEMP:  88;

SLIDELL        SUNNY     87  62  43 VRB5      30.11F
6HR MIN TEMP:  66; 6HR MAX TEMP:  88;

BATON ROUGE    PTSUNNY   87  67  51 CALM      30.13S
6HR MIN TEMP:  70; 6HR MAX TEMP:  87;

BOOTHVILLE     SUNNY     84  71  65 NE5       30.12F
6HR MIN TEMP:  75; 6HR MAX TEMP:  84;

BELLE CHASSE   PTSUNNY   83  72  69 E10       30.11F
6HR MIN TEMP:  77; 6HR MAX TEMP:  85;

BOGALUSA*      FAIR      89  63  41 NE6       30.13F
6HR MIN TEMP:  66; 6HR MAX TEMP:  89;

GALLIANO*      CLOUDY    85  72  63 SE7       30.11F
6HR MIN TEMP:  65; 6HR MAX TEMP:  86;

NEW ROADS*     FAIR      83  71  65 NW6       30.13F
6HR MIN TEMP:  68; 6HR MAX TEMP:  83;

GONZALES*      MOCLDY    85  67  55 CALM      30.11S
6HR MIN TEMP:  69; 6HR MAX TEMP:  86;

HAMMOND*       MOSUNNY   88  61  40 N3        30.11F
HOUMA*         PTSUNNY   84  70  61 N6        30.11F
PORT FOURCHON* CLEAR     81  72  74 SE12      30.11F

$$

LAZ041-044-053-054-291900-
SOUTHWEST LOUISIANA

CITY           SKY/WX    TMP DP  RH WIND       PRES   REMARKS
LAKE CHARLES   MOSUNNY   86  71  60 E9        30.11F
6HR MIN TEMP:  72; 6HR MAX TEMP:  87;

LAFAYETTE      PTSUNNY   86  72  62 NE7       30.13S
6HR MIN TEMP:  70; 6HR MAX TEMP:  87;

PATTERSON      MOSUNNY   84  71  65 NE7       30.12F
6HR MIN TEMP:  70; 6HR MAX TEMP:  85;

SALT POINT       N/A     84  73  69 W5        30.10F
6HR MIN TEMP:  72; 6HR MAX TEMP:  84;

NEW IBERIA     MOSUNNY   86  69  56 N8        30.13F
6HR MIN TEMP:  69; 6HR MAX TEMP:  87; 6HR PCP: TRACE;

CHENAULT AIRPK MOSUNNY  N/A N/A N/A NE8         N/A

$$

LAZ027-028-291900-
CENTRAL LOUISIANA

CITY           SKY/WX    TMP DP  RH WIND       PRES   REMARKS
FORT POLK      NOT AVBL
ALEXANDRIA INT SUNNY     87  66  49 CALM      30.11F
6HR MIN TEMP:  68; 6HR MAX TEMP:  89;

ALEXANDRIA     MOSUNNY   91  67  44 VRB3      30.13F
6HR MIN TEMP:  70; 6HR MAX TEMP:  91;


$$

LAZ001-002-291900-
NORTHWEST LOUISIANA

CITY           SKY/WX    TMP DP  RH WIND       PRES   REMARKS
SHREVEPORT     PTSUNNY   89  70  53 VRB3      30.11F
6HR MIN TEMP:  71; 6HR MAX TEMP:  89;

BARKSDALE AFB  NOT AVBL
DTN SHREVEPORT CLOUDY    88  72  58 CALM      30.12F
6HR MIN TEMP:  73; 6HR MAX TEMP:  88;


$$

LAZ014-016-291900-
NORTHEAST LOUISIANA

CITY           SKY/WX    TMP DP  RH WIND       PRES   REMARKS
MONROE         MOSUNNY   89  71  55 N6        30.13F HX  95
6HR MIN TEMP:  68; 6HR MAX TEMP:  89;

TALLULAH       SUNNY     90  69  50 N8        30.13F
6HR MIN TEMP:  71; 6HR MAX TEMP:  90;


$$







000
ASUS44 KLIX 291311
RWRLIX
NEW ORLEANS REGIONAL WEATHER ROUNDUP
NATIONAL WEATHER SERVICE NEW ORLEANS LA
800 AM CDT SUN MAY 29 2016

NOTE: "FAIR" INDICATES FEW OR NO CLOUDS BELOW 12,000 FEET WITH NO
      SIGNIFICANT WEATHER AND/OR OBSTRUCTIONS TO VISIBILITY.
      SKY/WX - SKY CONDITION AND SIGNIFICANT WEATHER.
      TMP - AIR TEMPERATURE.     DP    - DEWPOINT TEMPERATURE.
      RH  - RELATIVE HUMIDITY.   PRES  - PRESSURE.
      HI  - HEAT INDEX.          WCI   - WIND CHILL INDEX.

*  THESE STATIONS ARE NOT NWS OR FAA STATIONS AND ARE NOT UNDER
   NWS QUALITY CONTROL.

LAZ038-040-048-061>063-065>067-069-291400-
SOUTHEAST LOUISIANA

CITY           SKY/WX    TMP DP  RH WIND       PRES   REMARKS
N.O. AUDUBON     N/A     80  73  78 MISG        N/A
N.O. INTL ARPT PTSUNNY   78  72  81 E5        30.11R
N.O. LAKEFRONT MOSUNNY   78  73  84 NE7       30.11R
N.O. DOWNTOWN*   N/A     77  73  87 NE5       30.12R
RESERVE*         N/A     76  74  93 CALM      30.12R
SLIDELL        MOSUNNY   72  71  97 CALM      30.12R
BATON ROUGE    MOSUNNY   73  69  87 CALM      30.13R
BOOTHVILLE     SUNNY     77  74  90 E3        30.11R
BELLE CHASSE   SUNNY     77  74  90 NE5       30.11R
BOGALUSA*      CLOUDY    67  65  91 CALM      30.14R VSB 1/2
GALLIANO*      PTSUNNY   70  69  96 CALM      30.10R
NEW ROADS*     PTSUNNY   72  71  97 CALM      30.13R FOG
GONZALES*      FOG       72  72 100 CALM      30.11R VSB 1/4
HAMMOND*       MOSUNNY   72  66  83 CALM      30.12R
HOUMA*         SUNNY     73  73 100 CALM      30.12R FOG
PORT FOURCHON* SUNNY     79  73  83 CALM      30.11R

$$

MSZ070-080>082-291400-
SOUTHERN MISSISSIPPI

CITY           SKY/WX    TMP DP  RH WIND       PRES   REMARKS
MCCOMB         CLOUDY    74  69  85 CALM      30.15R HAZE
GULFPORT       SUNNY     75  70  84 N5        30.11R
BILOXI         MOSUNNY   71  71 100 NE5       30.11R
PASCAGOULA     SUNNY     72  71  97 N3        30.12R
STENNIS ARPT*  SUNNY     70  66  88 CALM      30.12R

$$

COASTAL OBSERVATIONS
LAKE AND NEARSHORE STATIONS

STATION/POSITION TIME  TEMP    WIND        PRES    WAVE
                       AIR SEA DIR/SP/G            HT/PER
                 (UTC) (F)     (DEG/KT/KT) (MB)    (FT/S)
PASCAGOULA       1200   72      10/  5/  6 1018.5
WAVELAND YACHT   1200   71 78   60/  6/  7 1019.0
GRAND ISLE       1200   78 81  110/  3/  4 1018.2
SOUTHWEST PASS   1200           50/  7/  8   N/A
NEW CANAL        1200   78 80   80/  1/  3 1018.2
SHELL BEACH      1200   77 79   70/  7/  8 1018.7

OFFSHORE STATIONS

STATION/POSITION TIME  TEMP    WIND        PRES    WAVE
                       AIR SEA DIR/SP/G            HT/PER
                 (UTC) (F)     (DEG/KT/KT) (MB)    (FT/S)
64 S DAUPHIN ISL 1200   78 79   70/  4/  6 1018.5

$$







000
ASUS44 KLIX 291311
RWRLA
LOUISIANA WEATHER ROUNDUP
NATIONAL WEATHER SERVICE NEW ORLEANS LA
800 AM CDT SUN MAY 29 2016

NOTE: "FAIR" INDICATES FEW OR NO CLOUDS BELOW 12,000 FEET WITH NO
      SIGNIFICANT WEATHER AND/OR OBSTRUCTIONS TO VISIBILITY.
      SKY/WX - SKY CONDITION AND SIGNIFICANT WEATHER.
      TMP - AIR TEMPERATURE.    DP   - DEWPOINT TEMPERATURE.
      RH  - RELATIVE HUMIDITY.  PRES - PRESSURE.
      HX  - HEAT INDEX.         WCI  - WIND CHILL INDEX.

*  THESE STATIONS ARE NOT NWS OR FAA STATIONS AND ARE NOT UNDER
   NWS QUALITY CONTROL.

LAZ040-048-061>063-065-066-069-291400-
SOUTHEAST LOUISIANA

CITY           SKY/WX    TMP DP  RH WIND       PRES   REMARKS
N.O. AUDUBON     N/A     80  73  78 MISG        N/A
N.O. INTL ARPT PTSUNNY   78  72  81 E5        30.11R
N.O. LAKEFRONT MOSUNNY   78  73  84 NE7       30.11R
N.O. DOWNTOWN* FAIR      77  73  87 NE5       30.12R
RESERVE*       FAIR      76  74  93 CALM      30.12R
SLIDELL        MOSUNNY   72  71  97 CALM      30.12R
BATON ROUGE    MOSUNNY   73  69  87 CALM      30.13R
BOOTHVILLE     SUNNY     77  74  90 E3        30.11R
BELLE CHASSE   SUNNY     77  74  90 NE5       30.11R
BOGALUSA*      CLOUDY    67  65  91 CALM      30.14R VSB 1/2
GALLIANO*      PTSUNNY   70  69  96 CALM      30.10R
NEW ROADS*     PTSUNNY   72  71  97 CALM      30.13R FOG
GONZALES*      FOG       72  72 100 CALM      30.11R VSB 1/4
HAMMOND*       MOSUNNY   72  66  83 CALM      30.12R
HOUMA*         SUNNY     73  73 100 CALM      30.12R FOG
PORT FOURCHON* SUNNY     79  73  83 CALM      30.11R

$$

LAZ041-044-053-054-291400-
SOUTHWEST LOUISIANA

CITY           SKY/WX    TMP DP  RH WIND       PRES   REMARKS
LAKE CHARLES   CLOUDY    75  74  96 CALM      30.11R
LAFAYETTE      MOSUNNY   74  71  91 CALM      30.12R
PATTERSON      SUNNY     75  74  96 NE3       30.12R
SALT POINT       N/A     76  74  93 CALM      30.09R
NEW IBERIA     MOSUNNY   75  71  87 CALM      30.12R
CHENAULT AIRPK FOG      N/A N/A N/A CALM        N/A  VSB 1

$$

LAZ027-028-291400-
CENTRAL LOUISIANA

CITY           SKY/WX    TMP DP  RH WIND       PRES   REMARKS
FORT POLK      MOSUNNY   72  71  96 N5        30.12R
ALEXANDRIA INT FOG       70  70 100 SE3       30.11S VSB 1/4
ALEXANDRIA     PTSUNNY   74  71  91 CALM      30.13S FOG

$$

LAZ001-002-291400-
NORTHWEST LOUISIANA

CITY           SKY/WX    TMP DP  RH WIND       PRES   REMARKS
SHREVEPORT     PTSUNNY   76  72  87 CALM      30.09S
BARKSDALE AFB  MOSUNNY   73  73 100 SE6       30.09S
DTN SHREVEPORT MOSUNNY   76  71  85 SE3       30.09S

$$

LAZ014-016-291400-
NORTHEAST LOUISIANA

CITY           SKY/WX    TMP DP  RH WIND       PRES   REMARKS
MONROE         CLOUDY    72  71  97 S5        30.14R
TALLULAH       MOSUNNY   75  70  84 CALM      30.15R

$$







    US Dept of Commerce
    National Oceanic and Atmospheric Administration
    National Weather Service
    1325 East West Highway
    Silver Spring, MD 20910
    Page Author: NWS Internet Services Team
Disclaimer
Information Quality
Credits
Glossary
Privacy Policy
Freedom of Information Act (FOIA)
About Us
Career Opportunities